• In Österreich
  • Länderverzeichnis
  • Für 7 Tage
  • Wassertemperatur
  • Satellitenkarten
  • Wetterkarte
  • News
  • Widgets
  • user-avatar
    Anmelden

    Stündliche Wetter Buenos Aires

    Heute, 23 Januar, Dienstag

    Zeit Temperatur Niederschläge Wind Luftdruck Luftfeuchtigkeit
    00:00 +26°C° 0 mm 2 m/S 751 mmHg 70%
    01:00 +26°C° 0 mm 2 m/S 751 mmHg 70%
    02:00 +26°C° 0 mm 2 m/S 751 mmHg 70%
    03:00 +26°C° 0 mm 2 m/S 751 mmHg 69%
    04:00 +25°C° 0 mm 2 m/S 751 mmHg 69%
    05:00 +25°C° 0 mm 2 m/S 751 mmHg 69%
    06:00 +27°C° 0 mm 2 m/S 752 mmHg 61%
    07:00 +29°C° 0 mm 2 m/S 752 mmHg 53%
    08:00 +31°C° 0 mm 2 m/S 752 mmHg 50%
    09:00 +34°C° 0 mm 3 m/S 751 mmHg 43%
    10:00 +36°C° 0 mm 3 m/S 751 mmHg 35%
    11:00 +38°C° 0 mm 3 m/S 751 mmHg 27%
    12:00 +38°C° 0 mm 3 m/S 751 mmHg 27%
    13:00 +38°C° 0 mm 3 m/S 750 mmHg 26%
    14:00 +38°C° 0 mm 3 m/S 750 mmHg 25%
    15:00 +38°C° 0 mm 3 m/S 750 mmHg 26%
    16:00 +38°C° 0 mm 3 m/S 750 mmHg 26%
    17:00 +38°C° 0 mm 3 m/S 750 mmHg 26%
    18:00 +36°C° 0,2 mm 3 m/S 750 mmHg 31%
    19:00 +34°C° 0,2 mm 3 m/S 751 mmHg 36%
    20:00 +31°C° 0,2 mm 2 m/S 751 mmHg 41%
    21:00 +31°C° 0,1 mm 3 m/S 752 mmHg 44%
    22:00 +30°C° 0,1 mm 3 m/S 752 mmHg 47%
    23:00 +29°C° 0,1 mm 3 m/S 753 mmHg 49%

    Morgen, 24 Januar, Mittwoch

    Zeit Temperatur Niederschläge Wind Luftdruck Luftfeuchtigkeit
    00:00 +27°C° 0 mm 5 m/S 754 mmHg 56%
    01:00 +26°C° 0 mm 6 m/S 755 mmHg 63%
    02:00 +24°C° 0 mm 8 m/S 755 mmHg 69%
    03:00 +23°C° 0 mm 8 m/S 756 mmHg 69%
    04:00 +22°C° 0 mm 8 m/S 757 mmHg 68%
    05:00 +21°C° 0 mm 7 m/S 758 mmHg 68%
    06:00 +21°C° 0 mm 8 m/S 758 mmHg 62%
    07:00 +22°C° 0 mm 8 m/S 758 mmHg 57%
    08:00 +23°C° 0 mm 8 m/S 759 mmHg 51%
    09:00 +24°C° 0 mm 7 m/S 759 mmHg 44%
    10:00 +27°C° 0 mm 7 m/S 759 mmHg 37%
    11:00 +29°C° 0 mm 6 m/S 759 mmHg 30%
    12:00 +30°C° 0 mm 6 m/S 759 mmHg 28%
    13:00 +32°C° 0 mm 5 m/S 760 mmHg 25%
    14:00 +33°C° 0 mm 5 m/S 760 mmHg 22%
    15:00 +32°C° 0 mm 5 m/S 760 mmHg 26%
    16:00 +30°C° 0 mm 6 m/S 760 mmHg 29%
    17:00 +30°C° 0 mm 6 m/S 760 mmHg 33%
    18:00 +28°C° 0 mm 6 m/S 760 mmHg 38%
    19:00 +26°C° 0 mm 6 m/S 761 mmHg 43%
    20:00 +23°C° 0 mm 6 m/S 761 mmHg 49%
    21:00 +22°C° 0 mm 6 m/S 762 mmHg 52%
    22:00 +22°C° 0 mm 6 m/S 762 mmHg 55%
    23:00 +21°C° 0 mm 6 m/S 763 mmHg 58%

    übermorgen, 25 Januar, Donnerstag

    Zeit Temperatur Niederschläge Wind Luftdruck Luftfeuchtigkeit
    00:00 +20°C° 0 mm 6 m/S 763 mmHg 59%
    01:00 +20°C° 0 mm 6 m/S 763 mmHg 61%
    02:00 +19°C° 0 mm 5 m/S 763 mmHg 63%
    03:00 +19°C° 0 mm 5 m/S 763 mmHg 65%
    04:00 +17°C° 0 mm 5 m/S 763 mmHg 68%
    05:00 +17°C° 0 mm 5 m/S 763 mmHg 70%
    06:00 +19°C° 0 mm 5 m/S 763 mmHg 66%
    07:00 +21°C° 0 mm 5 m/S 763 mmHg 61%
    08:00 +22°C° 0 mm 5 m/S 763 mmHg 56%
    09:00 +23°C° 0 mm 5 m/S 763 mmHg 52%
    10:00 +26°C° 0 mm 5 m/S 763 mmHg 48%
    11:00 +27°C° 0 mm 5 m/S 763 mmHg 44%
    12:00 +28°C° 0 mm 5 m/S 762 mmHg 42%
    13:00 +29°C° 0 mm 5 m/S 762 mmHg 39%
    14:00 +30°C° 0 mm 5 m/S 761 mmHg 36%
    15:00 +29°C° 0 mm 5 m/S 761 mmHg 38%
    16:00 +29°C° 0 mm 6 m/S 760 mmHg 40%
    17:00 +28°C° 0 mm 6 m/S 760 mmHg 42%
    18:00 +27°C° 0 mm 6 m/S 760 mmHg 49%
    19:00 +26°C° 0 mm 6 m/S 760 mmHg 55%
    20:00 +23°C° 0 mm 7 m/S 760 mmHg 62%
    21:00 +23°C° 0 mm 6 m/S 761 mmHg 66%
    22:00 +22°C° 0 mm 6 m/S 761 mmHg 70%
    23:00 +22°C° 0 mm 6 m/S 761 mmHg 74%

    26 Januar, Freitag

    Zeit Temperatur Niederschläge Wind Luftdruck Luftfeuchtigkeit
    00:00 +22°C° 0 mm 6 m/S 761 mmHg 73%
    01:00 +22°C° 0 mm 6 m/S 761 mmHg 73%
    02:00 +22°C° 0 mm 6 m/S 760 mmHg 72%
    03:00 +22°C° 0 mm 5 m/S 760 mmHg 71%
    04:00 +21°C° 0 mm 5 m/S 760 mmHg 71%
    05:00 +21°C° 0 mm 5 m/S 760 mmHg 70%
    06:00 +22°C° 0 mm 5 m/S 761 mmHg 65%
    07:00 +23°C° 0 mm 5 m/S 761 mmHg 60%
    08:00 +24°C° 0 mm 6 m/S 761 mmHg 55%
    09:00 +27°C° 0 mm 5 m/S 761 mmHg 49%
    10:00 +29°C° 0 mm 5 m/S 760 mmHg 43%
    11:00 +30°C° 0 mm 5 m/S 760 mmHg 37%
    12:00 +32°C° 0 mm 5 m/S 759 mmHg 33%
    13:00 +33°C° 0 mm 4 m/S 758 mmHg 30%
    14:00 +34°C° 0 mm 4 m/S 757 mmHg 27%
    15:00 +34°C° 0 mm 5 m/S 757 mmHg 27%
    16:00 +34°C° 0 mm 5 m/S 756 mmHg 27%
    17:00 +34°C° 0 mm 5 m/S 756 mmHg 28%
    18:00 +32°C° 0 mm 5 m/S 756 mmHg 37%
    19:00 +29°C° 0 mm 5 m/S 756 mmHg 46%
    20:00 +27°C° 0 mm 5 m/S 756 mmHg 55%
    21:00 +27°C° 0 mm 5 m/S 756 mmHg 56%
    22:00 +27°C° 0 mm 6 m/S 757 mmHg 56%
    23:00 +27°C° 0 mm 6 m/S 757 mmHg 57%

    27 Januar, Samstag

    Zeit Temperatur Niederschläge Wind Luftdruck Luftfeuchtigkeit
    00:00 +26°C° 0 mm 6 m/S 756 mmHg 59%
    01:00 +24°C° 0 mm 6 m/S 756 mmHg 62%
    02:00 +24°C° 0 mm 6 m/S 756 mmHg 64%
    03:00 +23°C° 0 mm 6 m/S 756 mmHg 66%
    04:00 +23°C° 0 mm 5 m/S 756 mmHg 69%
    05:00 +22°C° 0 mm 5 m/S 756 mmHg 71%
    06:00 +23°C° 0 mm 5 m/S 756 mmHg 67%
    07:00 +25°C° 0 mm 5 m/S 756 mmHg 63%
    08:00 +26°C° 0 mm 5 m/S 756 mmHg 60%
    09:00 +28°C° 0,1 mm 4 m/S 756 mmHg 56%
    10:00 +29°C° 0,1 mm 3 m/S 756 mmHg 53%
    11:00 +30°C° 0,1 mm 2 m/S 755 mmHg 49%
    12:00 +31°C° 0 mm 2 m/S 755 mmHg 47%
    13:00 +31°C° 0 mm 2 m/S 754 mmHg 45%
    14:00 +32°C° 0 mm 2 m/S 753 mmHg 43%
    15:00 +32°C° 0,2 mm 2 m/S 753 mmHg 44%
    16:00 +31°C° 0,2 mm 2 m/S 753 mmHg 45%
    17:00 +31°C° 0,2 mm 3 m/S 753 mmHg 46%
    18:00 +30°C° 0 mm 3 m/S 753 mmHg 50%
    19:00 +28°C° 0 mm 3 m/S 753 mmHg 53%
    20:00 +27°C° 0 mm 4 m/S 753 mmHg 56%
    21:00 +27°C° 0 mm 3 m/S 753 mmHg 61%
    22:00 +26°C° 0 mm 3 m/S 753 mmHg 65%
    23:00 +25°C° 0 mm 3 m/S 753 mmHg 69%

    28 Januar, Sonntag

    Zeit Temperatur Niederschläge Wind Luftdruck Luftfeuchtigkeit
    00:00 +25°C° 0 mm 3 m/S 753 mmHg 71%
    01:00 +25°C° 0 mm 2 m/S 753 mmHg 73%
    02:00 +25°C° 0 mm 2 m/S 753 mmHg 75%
    03:00 +24°C° 0 mm 2 m/S 753 mmHg 76%
    04:00 +24°C° 0 mm 1 m/S 753 mmHg 77%
    05:00 +24°C° 0 mm 1 m/S 753 mmHg 78%
    06:00 +26°C° 0 mm 1 m/S 754 mmHg 69%
    07:00 +27°C° 0 mm 2 m/S 754 mmHg 61%
    08:00 +29°C° 0 mm 2 m/S 754 mmHg 53%
    09:00 +33°C° 0 mm 3 m/S 754 mmHg 42%
    10:00 +35°C° 0 mm 3 m/S 754 mmHg 32%
    11:00 +38°C° 0 mm 3 m/S 754 mmHg 22%
    12:00 +38°C° 0 mm 4 m/S 753 mmHg 18%
    13:00 +40°C° 0 mm 4 m/S 753 mmHg 15%
    14:00 +41°C° 0 mm 4 m/S 752 mmHg 11%
    15:00 +40°C° 0 mm 5 m/S 753 mmHg 12%
    16:00 +40°C° 0 mm 5 m/S 753 mmHg 12%
    17:00 +40°C° 0 mm 5 m/S 753 mmHg 13%
    18:00 +35°C° 0 mm 6 m/S 753 mmHg 26%
    19:00 +32°C° 0 mm 7 m/S 754 mmHg 39%
    20:00 +28°C° 0 mm 8 m/S 755 mmHg 52%
    21:00 +27°C° 0 mm 8 m/S 755 mmHg 54%
    22:00 +26°C° 0 mm 7 m/S 756 mmHg 57%
    23:00 +24°C° 0 mm 7 m/S 756 mmHg 59%
    Mehr zeigen